Weather History for New Ulm, MN

Change the Weather History Date:

Friday, November 22, 2013

  Actual Average Record
Temperature  
Mean Temperature 20 °F -  
Max Temperature 35 °F 38 °F 60 °F (1998)
Min Temperature 5 °F 22 °F -2 °F (1996)
Degree Days  
Heating Degree Days 45    
Moisture  
Dew Point 8 °F    
Average Humidity 65    
Maximum Humidity 92    
Minimum Humidity 30    
Precipitation  
Precipitation 0.00 in - - ()
Sea Level Pressure  
Sea Level Pressure 30.55 in    
Wind  
Wind Speed 13 mph (WNW)    
Max Wind Speed 23 mph    
Max Gust Speed 33 mph    
Visibility 10 miles    
Events      
Averages and records for this station are not official NWS values.
T = Trace of Precipitation, MM = Missing Value Source: NWS Daily Summary

Daily Weather History Graph

Daily Weather History Graph

Search for Another Location

Airport:

Trip Planner

Search our weather history database for the weather conditions in past years. The results will help you decide how hot, cold, wet, or windy it might be!

Date:

Astronomy

Nov. 22, 2013 Rise Set
Actual Time 7:23 AM CST 4:44 PM CST
Civil Twilight 6:51 AM CST 5:16 PM CST
Nautical Twilight 6:15 AM CST 5:52 PM CST
Astronomical Twilight 5:41 AM CST 6:26 PM CST
Moon 9:20 PM CST (11/22) 11:04 AM CST (11/22)
Length of Visible Light 10h 25m
Length of Day
9h 21m
Waning Gibbous, 78% of the Moon is Illuminated
Nov 22
Waning Gibbous
Nov 25
Last Quarter
Dec 2
New
Dec 9
First Quarter
Dec 17
Full

Hourly Weather History & Observations

Time (CST) Temp. Windchill Dew Point Humidity Pressure Visibility Wind Dir Wind Speed Gust Speed Precip Events Conditions
12:12 AM 17.6 °F 2.2 °F 12.2 °F 79% 30.53 in 10.0 mi NNW 17.3 mph 24.2 mph N/A   Overcast
12:33 AM 17.6 °F 2.7 °F 12.2 °F 79% 30.54 in 10.0 mi NNW 16.1 mph - N/A   Overcast
12:53 AM 17.6 °F 2.2 °F 12.2 °F 79% 30.54 in 10.0 mi NNW 17.3 mph 23.0 mph N/A   Overcast
1:12 AM 17.6 °F 3.2 °F 12.2 °F 79% 30.55 in 10.0 mi NW 15.0 mph - N/A   Mostly Cloudy
1:33 AM 17.6 °F 5.0 °F 12.2 °F 79% 30.56 in 10.0 mi NW 11.5 mph - N/A   Scattered Clouds
1:53 AM 15.8 °F 2.1 °F 10.4 °F 79% 30.56 in 10.0 mi NW 12.7 mph - N/A   Clear
2:12 AM 15.8 °F 3.4 °F 10.4 °F 79% 30.56 in 10.0 mi NW 10.4 mph - N/A   Clear
2:33 AM 15.8 °F 3.4 °F 10.4 °F 79% 30.56 in 10.0 mi NW 10.4 mph - N/A   Clear
2:53 AM 14.0 °F 2.9 °F 10.4 °F 86% 30.57 in 10.0 mi NW 8.1 mph - N/A   Clear
3:12 AM 12.2 °F -3.7 °F 8.6 °F 85% 30.56 in 10.0 mi NW 15.0 mph - N/A   Clear
3:33 AM 10.4 °F -1.5 °F 8.6 °F 92% 30.57 in 10.0 mi WNW 8.1 mph - N/A   Clear
3:53 AM 10.4 °F -2.4 °F 6.8 °F 85% 30.56 in 10.0 mi NW 9.2 mph - N/A   Clear
4:12 AM 10.4 °F -3.3 °F 6.8 °F 85% 30.56 in 10.0 mi NW 10.4 mph - N/A   Clear
4:33 AM 10.4 °F -4.1 °F 6.8 °F 85% 30.56 in 10.0 mi NW 11.5 mph - N/A   Clear
4:53 AM 10.4 °F -3.3 °F 6.8 °F 85% 30.56 in 10.0 mi NW 10.4 mph - N/A   Clear
5:13 AM 8.6 °F -5.5 °F 5.0 °F 85% 30.56 in 10.0 mi NW 10.4 mph - N/A   Clear
5:33 AM 8.6 °F -3.7 °F 5.0 °F 85% 30.57 in 10.0 mi NW 8.1 mph - N/A   Clear
5:52 AM 8.6 °F -4.7 °F 5.0 °F 85% 30.57 in 10.0 mi NW 9.2 mph - N/A   Clear
6:13 AM 8.6 °F -4.7 °F 5.0 °F 85% 30.58 in 10.0 mi NW 9.2 mph - N/A   Clear
6:33 AM 8.6 °F -1.3 °F 5.0 °F 85% 30.57 in 10.0 mi WNW 5.8 mph - N/A   Clear
6:52 AM 6.8 °F -3.5 °F 3.2 °F 85% 30.58 in 10.0 mi NW 5.8 mph - N/A   Clear
7:13 AM 6.8 °F -2.0 °F 3.2 °F 85% 30.57 in 10.0 mi WNW 4.6 mph - N/A   Clear
7:33 AM 5.0 °F -6.9 °F 1.4 °F 85% 30.59 in 10.0 mi West 6.9 mph - N/A   Clear
7:52 AM 6.8 °F -3.5 °F 3.2 °F 85% 30.60 in 10.0 mi WNW 5.8 mph - N/A   Clear
8:13 AM 10.4 °F -4.1 °F 5.0 °F 79% 30.59 in 10.0 mi NW 11.5 mph - N/A   Clear
8:33 AM 10.4 °F 0.8 °F 6.8 °F 85% 30.59 in 10.0 mi West 5.8 mph - N/A   Clear
8:52 AM 10.4 °F 2.2 °F 6.8 °F 85% 30.59 in 10.0 mi West 4.6 mph - N/A   Clear
9:13 AM 12.2 °F 2.9 °F 6.8 °F 79% 30.59 in 10.0 mi West 5.8 mph - N/A   Clear
9:33 AM 14.0 °F 5.1 °F 6.8 °F 73% 30.58 in 10.0 mi WSW 5.8 mph - N/A   Clear
9:52 AM 15.8 °F 5.1 °F 8.6 °F 73% 30.59 in 10.0 mi West 8.1 mph - N/A   Clear
10:13 AM 17.6 °F 8.2 °F 8.6 °F 68% 30.59 in 10.0 mi WSW 6.9 mph - N/A   Clear
10:33 AM 19.4 °F 8.6 °F 6.8 °F 58% 30.59 in 10.0 mi West 9.2 mph - N/A   Clear
10:52 AM 21.2 °F 10.9 °F 8.6 °F 58% 30.58 in 10.0 mi WSW 9.2 mph - N/A   Clear
11:13 AM 23.0 °F 12.4 °F 8.6 °F 54% 30.57 in 10.0 mi WSW 10.4 mph - N/A   Clear
11:33 AM 24.8 °F 16.1 °F 8.6 °F 50% 30.56 in 10.0 mi WSW 8.1 mph - N/A   Clear
11:52 AM 26.6 °F 18.2 °F 6.8 °F 43% 30.55 in 10.0 mi WSW 8.1 mph - N/A   Clear
12:13 PM 28.4 °F 20.4 °F 6.8 °F 40% 30.52 in 10.0 mi SW 8.1 mph - N/A   Clear
12:33 PM 30.2 °F 21.3 °F 6.8 °F 37% 30.51 in 10.0 mi WSW 10.4 mph - N/A   Clear
12:52 PM 32.0 °F 23.0 °F 6.8 °F 35% 30.51 in 10.0 mi WSW 11.5 mph - N/A   Clear
1:13 PM 33.8 °F 24.8 °F 8.6 °F 35% 30.50 in 10.0 mi West 12.7 mph - N/A   Clear
1:33 PM 33.8 °F 24.3 °F 8.6 °F 35% 30.49 in 10.0 mi WSW 13.8 mph - N/A   Clear
1:52 PM 35.6 °F 25.9 °F 8.6 °F 33% 30.48 in 10.0 mi WSW 16.1 mph 20.7 mph N/A   Clear
2:13 PM 35.6 °F 27.1 °F 8.6 °F 33% 30.47 in 10.0 mi WSW 12.7 mph - N/A   Clear
2:33 PM 35.6 °F 24.8 °F 6.8 °F 30% 30.47 in 10.0 mi West 19.6 mph 23.0 mph N/A   Clear
2:52 PM 35.6 °F 25.9 °F 8.6 °F 33% 30.46 in 10.0 mi West 16.1 mph - N/A   Clear
3:13 PM 35.6 °F 25.9 °F 8.6 °F 33% 30.47 in 10.0 mi West 16.1 mph - N/A   Clear
3:33 PM 33.8 °F 24.8 °F 10.4 °F 38% 30.47 in 10.0 mi WSW 12.7 mph - N/A   Clear
3:52 PM 33.8 °F 25.8 °F 12.2 °F 41% 30.47 in 10.0 mi West 10.4 mph - N/A   Clear
4:13 PM 33.8 °F 23.9 °F 8.6 °F 35% 30.47 in 10.0 mi West 15.0 mph - N/A   Clear
4:33 PM 30.2 °F 20.8 °F 8.6 °F 40% 30.47 in 10.0 mi West 11.5 mph - N/A   Clear
4:52 PM 28.4 °F 18.0 °F 8.6 °F 43% 30.48 in 10.0 mi West 12.7 mph - N/A   Clear
5:13 PM 28.4 °F 18.0 °F 10.4 °F 47% 30.50 in 10.0 mi NW 12.7 mph 17.3 mph N/A   Clear
5:33 PM 28.4 °F 15.4 °F 10.4 °F 47% 30.49 in 10.0 mi NNW 19.6 mph 26.5 mph N/A   Clear
5:52 PM 26.6 °F 14.3 °F 12.2 °F 55% 30.50 in 10.0 mi NW 16.1 mph 27.6 mph N/A   Clear
6:13 PM 24.8 °F 12.4 °F 12.2 °F 59% 30.52 in 10.0 mi NW 15.0 mph 24.2 mph N/A   Clear
6:33 PM 23.0 °F 8.7 °F 12.2 °F 63% 30.52 in 10.0 mi NNW 18.4 mph 23.0 mph N/A   Clear
6:52 PM 23.0 °F 9.6 °F 12.2 °F 63% 30.53 in 10.0 mi NW 16.1 mph - N/A   Clear
7:13 PM 23.0 °F 8.7 °F 12.2 °F 63% 30.53 in 10.0 mi NNW 18.4 mph 26.5 mph N/A   Scattered Clouds
7:33 PM 23.0 °F 9.2 °F 12.2 °F 63% 30.54 in 10.0 mi NNW 17.3 mph 33.4 mph N/A   Mostly Cloudy
7:52 PM 21.2 °F 5.2 °F 12.2 °F 68% 30.55 in 10.0 mi NW 21.9 mph 27.6 mph N/A   Overcast
8:13 PM 21.2 °F 5.2 °F 10.4 °F 63% 30.56 in 10.0 mi NNW 21.9 mph 27.6 mph N/A   Overcast
8:33 PM 19.4 °F 3.6 °F 10.4 °F 68% 30.57 in 10.0 mi NNW 19.6 mph 26.5 mph N/A   Mostly Cloudy
8:53 PM 19.4 °F 2.5 °F 8.6 °F 63% 30.58 in 10.0 mi NW 23.0 mph 28.8 mph N/A   Scattered Clouds
9:13 PM 17.6 °F 0.5 °F 6.8 °F 63% 30.58 in 10.0 mi NNW 21.9 mph 26.5 mph N/A   Clear
9:33 PM 15.8 °F -1.5 °F 6.8 °F 68% 30.60 in 10.0 mi NW 20.7 mph 26.5 mph N/A   Scattered Clouds
9:53 PM 15.8 °F -0.2 °F 6.8 °F 68% 30.61 in 10.0 mi NNW 17.3 mph 26.5 mph N/A   Scattered Clouds
10:13 PM 14.0 °F -3.0 °F 6.8 °F 73% 30.63 in 10.0 mi NW 18.4 mph 26.5 mph N/A   Clear
10:33 PM 14.0 °F -2.0 °F 3.2 °F 62% 30.62 in 10.0 mi NNW 16.1 mph 26.5 mph N/A   Clear
10:53 PM 12.2 °F -3.7 °F 5.0 °F 73% 30.64 in 10.0 mi NW 15.0 mph - N/A   Clear
11:13 PM 10.4 °F -5.4 °F 3.2 °F 73% 30.64 in 10.0 mi NW 13.8 mph - N/A   Clear
11:33 PM 10.4 °F -6.6 °F 3.2 °F 73% 30.64 in 10.0 mi NW 16.1 mph 24.2 mph N/A   Clear
11:53 PM 10.4 °F -8.2 °F 3.2 °F 73% 30.65 in 10.0 mi NW 19.6 mph 25.3 mph N/A   Clear